Time,TemperatureF,DewpointF,PressureIn,WindDirection,WindDirectionDegrees,WindSpeedMPH,WindSpeedGustMPH,Humidity,HourlyPrecipIn,Conditions,Clouds,dailyrainin,SoftwareType,DateUTC
2013-06-10 00:36:00,77.2,77.0,30.01,SE,135,2.0,-999.0,100,-99.99,,,0.00,weatherlink.com 1.10,2013-06-10 04:36:00,
2013-06-10 00:51:00,77.2,77.0,30.01,SSE,159,5.0,-999.0,100,-99.99,,,0.00,weatherlink.com 1.10,2013-06-10 04:51:00,
2013-06-10 01:06:00,77.4,77.0,30.00,SE,134,1.0,-999.0,100,-99.99,,,0.00,weatherlink.com 1.10,2013-06-10 05:06:00,
2013-06-10 01:36:00,77.7,78.0,30.00,SSE,147,2.0,-999.0,100,-99.99,,,0.00,weatherlink.com 1.10,2013-06-10 05:36:00,
2013-06-10 01:51:00,77.7,78.0,30.00,ESE,110,1.0,-999.0,100,-99.99,,,0.00,weatherlink.com 1.10,2013-06-10 05:51:00,
2013-06-10 02:36:00,77.7,78.0,30.00,ESE,103,0.0,-999.0,100,-99.99,,,0.00,weatherlink.com 1.10,2013-06-10 06:36:00,
2013-06-10 03:05:00,77.4,77.0,29.99,ESE,103,0.0,-999.0,100,-99.99,,,0.00,weatherlink.com 1.10,2013-06-10 07:05:00,
2013-06-10 04:50:00,76.8,77.0,29.99,ESE,114,1.0,-999.0,100,-99.99,,,0.00,weatherlink.com 1.10,2013-06-10 08:50:00,
2013-06-10 05:06:00,76.8,77.0,29.98,SE,137,0.0,-999.0,100,-99.99,,,0.00,weatherlink.com 1.10,2013-06-10 09:06:00,
2013-06-10 05:37:00,76.5,77.0,29.98,SE,137,0.0,-999.0,100,-99.99,,,0.00,weatherlink.com 1.10,2013-06-10 09:37:00,
2013-06-10 05:51:00,76.3,76.0,29.98,SE,133,0.0,-999.0,100,-99.99,,,0.00,weatherlink.com 1.10,2013-06-10 09:51:00,
2013-06-10 06:07:00,76.1,76.0,29.98,SE,133,0.0,-999.0,100,-99.99,,,0.00,weatherlink.com 1.10,2013-06-10 10:07:00,
2013-06-10 06:21:00,76.1,76.0,29.98,SE,133,0.0,-999.0,100,-99.99,,,0.00,weatherlink.com 1.10,2013-06-10 10:21:00,
2013-06-10 06:36:00,76.0,76.0,29.98,SE,133,0.0,-999.0,100,-99.99,,,0.00,weatherlink.com 1.10,2013-06-10 10:36:00,
2013-06-10 06:52:00,76.0,76.0,29.99,SE,133,0.0,-999.0,100,-99.99,,,0.00,weatherlink.com 1.10,2013-06-10 10:52:00,
2013-06-10 07:51:00,76.5,77.0,30.00,SE,133,0.0,-999.0,100,-99.99,,,0.00,weatherlink.com 1.10,2013-06-10 11:51:00,
2013-06-10 08:07:00,77.9,78.0,30.00,SE,133,1.0,-999.0,100,-99.99,,,0.00,weatherlink.com 1.10,2013-06-10 12:07:00,
2013-06-10 08:21:00,79.2,79.0,30.00,SE,146,0.0,-999.0,100,-99.99,,,0.00,weatherlink.com 1.10,2013-06-10 12:21:00,
2013-06-10 08:37:00,80.5,81.0,30.01,ESE,107,0.0,-999.0,100,-99.99,,,0.00,weatherlink.com 1.10,2013-06-10 12:37:00,
2013-06-10 08:52:00,81.6,82.0,30.02,SSE,155,0.0,-999.0,100,-99.99,,,0.00,weatherlink.com 1.10,2013-06-10 12:52:00,
2013-06-10 09:07:00,82.0,82.0,30.02,SE,134,0.0,-999.0,100,-99.99,,,0.00,weatherlink.com 1.10,2013-06-10 13:07:00,
2013-06-10 09:22:00,82.8,83.0,30.02,ENE,69,2.0,-999.0,100,-99.99,,,0.00,weatherlink.com 1.10,2013-06-10 13:22:00,
2013-06-10 09:37:00,83.8,84.0,30.02,SE,128,0.0,-999.0,100,-99.99,,,0.00,weatherlink.com 1.10,2013-06-10 13:37:00,
2013-06-10 09:52:00,83.4,83.0,30.02,ESE,110,1.0,-999.0,100,-99.99,,,0.00,weatherlink.com 1.10,2013-06-10 13:52:00,
2013-06-10 10:07:00,82.6,83.0,30.02,SE,145,3.0,-999.0,100,-99.99,,,0.00,weatherlink.com 1.10,2013-06-10 14:07:00,
2013-06-10 10:52:00,84.3,84.0,30.02,SE,129,4.0,-999.0,100,-99.99,,,0.00,weatherlink.com 1.10,2013-06-10 14:52:00,
2013-06-10 11:06:00,83.8,84.0,30.02,East,87,0.0,-999.0,100,-99.99,,,0.00,weatherlink.com 1.10,2013-06-10 15:06:00,
2013-06-10 11:22:00,83.2,83.0,30.02,ESE,103,1.0,-999.0,100,-99.99,,,0.00,weatherlink.com 1.10,2013-06-10 15:22:00,
2013-06-10 11:37:00,84.0,84.0,30.02,East,90,0.0,-999.0,100,-99.99,,,0.00,weatherlink.com 1.10,2013-06-10 15:37:00,
2013-06-10 11:52:00,85.1,85.0,30.02,SSE,148,0.0,-999.0,100,-99.99,,,0.00,weatherlink.com 1.10,2013-06-10 15:52:00,
2013-06-10 12:07:00,85.1,85.0,30.01,East,87,11.0,-999.0,100,-99.99,,,0.00,weatherlink.com 1.10,2013-06-10 16:07:00,
2013-06-10 12:22:00,84.7,85.0,30.01,SSE,150,3.0,-999.0,100,-99.99,,,0.00,weatherlink.com 1.10,2013-06-10 16:22:00,
2013-06-10 12:37:00,85.1,85.0,30.01,SE,134,2.0,-999.0,100,-99.99,,,0.00,weatherlink.com 1.10,2013-06-10 16:37:00,
2013-06-10 12:52:00,85.7,86.0,30.01,ESE,111,0.0,-999.0,100,-99.99,,,0.00,weatherlink.com 1.10,2013-06-10 16:52:00,
2013-06-10 13:06:00,84.7,85.0,30.00,SE,133,0.0,-999.0,100,-99.99,,,0.00,weatherlink.com 1.10,2013-06-10 17:06:00,
2013-06-10 13:22:00,85.1,85.0,30.00,ESE,109,3.0,-999.0,100,-99.99,,,0.00,weatherlink.com 1.10,2013-06-10 17:22:00,
2013-06-10 13:37:00,86.7,87.0,30.00,ENE,68,0.0,-999.0,100,-99.99,,,0.00,weatherlink.com 1.10,2013-06-10 17:37:00,
2013-06-10 13:53:00,87.0,87.0,29.99,ESE,102,0.0,-999.0,100,-99.99,,,0.00,weatherlink.com 1.10,2013-06-10 17:53:00,
2013-06-10 14:07:00,85.1,85.0,29.99,SE,125,4.0,-999.0,100,-99.99,,,0.00,weatherlink.com 1.10,2013-06-10 18:07:00,
2013-06-10 14:22:00,84.7,85.0,30.00,NE,54,2.0,-999.0,100,-99.99,,,0.00,weatherlink.com 1.10,2013-06-10 18:22:00,
2013-06-10 14:37:00,84.1,84.0,29.99,ENE,78,0.0,-999.0,100,-99.99,,,0.00,weatherlink.com 1.10,2013-06-10 18:37:00,
2013-06-10 15:07:00,84.1,84.0,29.98,East,89,3.0,-999.0,100,-99.99,,,0.00,weatherlink.com 1.10,2013-06-10 19:07:00,
2013-06-10 15:22:00,85.7,86.0,29.98,ESE,113,0.0,-999.0,100,-99.99,,,0.00,weatherlink.com 1.10,2013-06-10 19:22:00,
2013-06-10 16:07:00,85.7,86.0,29.97,ESE,117,0.0,-999.0,100,-99.99,,,0.00,weatherlink.com 1.10,2013-06-10 20:07:00,
2013-06-10 16:22:00,86.3,86.0,29.96,SE,133,0.0,-999.0,100,-99.99,,,0.00,weatherlink.com 1.10,2013-06-10 20:22:00,
2013-06-10 16:37:00,84.1,84.0,29.96,ENE,72,3.0,-999.0,100,-99.99,,,0.00,weatherlink.com 1.10,2013-06-10 20:37:00,
2013-06-10 17:07:00,83.4,83.0,29.95,ESE,108,4.0,-999.0,100,-99.99,,,0.00,weatherlink.com 1.10,2013-06-10 21:07:00,
2013-06-10 18:07:00,81.1,81.0,29.95,ESE,117,1.0,-999.0,100,-99.99,,,0.00,weatherlink.com 1.10,2013-06-10 22:07:00,
2013-06-10 18:22:00,80.9,81.0,29.95,ESE,110,3.0,-999.0,100,-99.99,,,0.00,weatherlink.com 1.10,2013-06-10 22:22:00,
2013-06-10 18:37:00,80.7,81.0,29.94,ESE,119,1.0,-999.0,100,-99.99,,,0.00,weatherlink.com 1.10,2013-06-10 22:37:00,
2013-06-10 19:07:00,80.3,80.0,29.95,ESE,115,0.0,-999.0,100,-99.99,,,0.00,weatherlink.com 1.10,2013-06-10 23:07:00,
2013-06-10 19:22:00,80.1,80.0,29.95,East,92,1.0,-999.0,100,-99.99,,,0.00,weatherlink.com 1.10,2013-06-10 23:22:00,
2013-06-10 19:37:00,79.9,80.0,29.95,East,99,2.0,-999.0,100,-99.99,,,0.00,weatherlink.com 1.10,2013-06-10 23:37:00,
2013-06-10 19:52:00,79.8,80.0,29.95,ESE,103,2.0,-999.0,100,-99.99,,,0.00,weatherlink.com 1.10,2013-06-10 23:52:00,
2013-06-10 20:07:00,79.6,80.0,29.95,ESE,110,1.0,-999.0,100,-99.99,,,0.00,weatherlink.com 1.10,2013-06-11 00:07:00,
2013-06-10 20:22:00,79.4,79.0,29.96,ESE,106,0.0,-999.0,100,-99.99,,,0.00,weatherlink.com 1.10,2013-06-11 00:22:00,
2013-06-10 20:37:00,79.2,79.0,29.96,ESE,115,1.0,-999.0,100,-99.99,,,0.00,weatherlink.com 1.10,2013-06-11 00:37:00,
2013-06-10 20:52:00,79.0,79.0,29.96,SE,136,0.0,-999.0,100,-99.99,,,0.00,weatherlink.com 1.10,2013-06-11 00:52:00,
2013-06-10 21:07:00,78.8,79.0,29.96,SE,136,0.0,-999.0,100,-99.99,,,0.00,weatherlink.com 1.10,2013-06-11 01:07:00,
2013-06-10 21:37:00,78.6,79.0,29.97,ESE,105,0.0,-999.0,100,-99.99,,,0.00,weatherlink.com 1.10,2013-06-11 01:37:00,
2013-06-10 21:52:00,78.6,79.0,29.98,ESE,103,1.0,-999.0,100,-99.99,,,0.00,weatherlink.com 1.10,2013-06-11 01:52:00,
2013-06-10 22:07:00,78.6,79.0,29.98,East,88,1.0,-999.0,100,-99.99,,,0.00,weatherlink.com 1.10,2013-06-11 02:07:00,
2013-06-10 22:37:00,78.5,79.0,29.99,East,94,1.0,-999.0,100,-99.99,,,0.00,weatherlink.com 1.10,2013-06-11 02:37:00,
2013-06-10 22:53:00,78.3,78.0,30.00,ESE,120,1.0,-999.0,100,-99.99,,,0.00,weatherlink.com 1.10,2013-06-11 02:53:00,
2013-06-10 23:07:00,78.3,78.0,30.00,ESE,103,0.0,-999.0,100,-99.99,,,0.00,weatherlink.com 1.10,2013-06-11 03:07:00,
2013-06-10 23:38:00,78.3,78.0,30.00,SE,130,4.0,-999.0,100,-99.99,,,0.00,weatherlink.com 1.10,2013-06-11 03:38:00,
2013-06-10 23:52:00,78.3,78.0,29.99,SE,127,0.0,-999.0,100,-99.99,,,0.00,weatherlink.com 1.10,2013-06-11 03:52:00,